Regional Weather Roundup
Issued by NWS

Home | Current Version | Previous Version | Text Only | Print | Product List | Glossary On
Versions: 1 2 3 4 5 6 7 8 9 10 11 12 13 14 15 16 17 18 19 20 21 22 23 24 25 26 27 28 29 30 31 32 33 34 35 36 37 38 39 40 41 42 43 44 45 46 47 48 49 50
000
ASUS43 KLSX 281107
RWRMO

WEATHER SUMMARY FOR MISSOURI
NATIONAL WEATHER SERVICE SPRINGFIELD MO
500 AM CST SUN DEC 28 2014

NOTE: "FAIR" INDICATES FEW OR NO CLOUDS BELOW 12,000 FEET WITH NO
       SIGNIFICANT WEATHER AND/OR OBSTRUCTIONS TO VISIBILITY.
       CURRENT SKY AND/OR WEATHER CONDITIONS ARE NOT AVAILABLE FOR
       CHILLICOTHE AND FARMINGTON.

MOZ001>031-035>038-043-044-053-054-281200-
...NORTHERN AND WESTERN MISSOURI...

CITY           SKY/WX    TMP DP  RH WIND       PRES   REMARKS
KANSAS CTY INT FAIR      18  15  88 S5        30.20F WCI  11
KANSAS C DTWN  PTCLDY    22  18  85 NW3       30.22F
LEE`S SUMMIT   MOCLDY    20  16  84 SW3       30.21F
ST JOSEPH      CLEAR     16  14  92 SW3       30.22F
CHILLICOTHE      N/A     20  16  84 CALM      30.24R
KIRKSVILLE     PTCLDY    20  19  96 W5        30.21S WCI  13

$$
MOZ066>068-077>081-088>096-101>105-281200-
...SOUTHWEST MISSOURI...

CITY           SKY/WX    TMP DP  RH WIND       PRES   REMARKS
SPRINGFIELD    CLOUDY    26  23  88 N5        30.19F WCI  20
JOPLIN         MOCLDY    22  20  92 N3        30.24F

$$
MOZ032>034-039>042-045>050-055>058-069>072-281200-
...CENTRAL MISSOURI...

CITY           SKY/WX    TMP DP  RH WIND       PRES   REMARKS
COLUMBIA       CLOUDY    27  22  81 NW9       30.21F WCI  18
JEFFERSON CITY CLOUDY    29  22  75 NW5       30.24F WCI  24
ROLLA          CLOUDY    27  22  81 N9        30.18F WCI  18
SEDALIA        PTCLDY    22  19  89 S3        30.22F
WHITEMAN AFB   PTCLDY    21  18  86 SW1       30.24F
WARRENSBURG    MOCLDY    19  18  93 SE3       30.22F
OSAGE BEACH    CLOUDY    27  19  74 N3        30.21F

$$
MOZ051-052-059>065-281200-
...EAST CENTRAL MISSOURI...

CITY           SKY/WX    TMP DP  RH WIND       PRES   REMARKS
ST LOUIS INTL  CLOUDY    33  25  72 NW8       30.22S WCI  26
SPIRIT OF STL  CLOUDY    31  24  75 NW7       30.22S WCI  24
ST CHARLES     CLOUDY    31  25  78 NW8       30.22F WCI  23

$$
MOZ072>076-082>087-097>100-106>115-281200-
...SOUTH CENTRAL AND SOUTHEAST MISSOURI...

CITY           SKY/WX    TMP DP  RH WIND       PRES   REMARKS
CAPE GIRARDEAU CLOUDY    35  31  85 N10       30.19F WCI  27
FARMINGTON     CLOUDY    30  27  86 S8        30.19F WCI  23
POPLAR BLUFF   CLOUDY    35  30  82 N10       30.18F WCI  27
WEST PLAINS    CLOUDY    29  23  78 N7        30.17F WCI  22

$$



USA.gov is the U.S. government's official web portal to all federal, state and local government web resources and services.